Theta_e
354 356 356 345 354 353 347 344 343 347 346 347 347 347 350 351 353 356 353 352 349 343 340 342 340 333 334 333 331 330 330 331 333 334 335 336 337 336 335 336 337 336 331 332 337 336 335 335 335
355 356 356 357 361 354 351 345 348 347 346 349 352 346 346 348 348 352 352 350 343 341 342 342 342 337 337 334 333 333 332 332 333 334 337 339 340 337 335 335 334 336 337 337 335 335 335 335 335
360 361 360 360 355 350 346 345 346 346 347 349 350 349 345 347 350 352 352 348 340 340 341 342 342 341 340 340 337 333 333 333 333 334 340 340 341 337 335 335 335 334 335 334 333 335 337 336 335
360 361 362 362 348 343 344 344 344 345 348 349 347 345 345 347 350 351 351 349 341 339 340 341 341 341 341 340 340 340 338 337 338 340 340 339 338 335 335 335 335 335 334 335 335 337 341 336 332
350 362 362 359 344 345 344 345 344 345 352 350 346 347 346 347 348 351 351 349 344 340 340 339 340 340 340 339 339 339 340 339 340 340 338 335 334 334 334 335 335 335 334 335 334 336 340 332 332
351 354 363 347 346 346 346 344 342 342 350 349 348 349 347 347 348 350 350 349 346 347 341 335 335 335 336 336 336 336 337 336 335 334 333 333 334 335 335 333 332 334 337 335 338 339 332 330 331
353 357 364 348 348 348 346 344 343 343 347 350 350 348 346 346 347 348 349 348 349 348 343 331 331 332 332 333 333 334 334 333 333 332 335 334 336 335 335 334 333 338 338 334 329 329 329 331 332
352 359 360 348 347 347 346 344 343 343 344 349 348 348 345 345 345 346 349 349 349 349 340 330 332 334 335 336 336 337 338 337 336 338 338 333 336 336 336 335 331 329 327 328 331 339 341 341 341
351 359 362 354 346 345 344 343 343 344 344 346 348 347 345 345 345 345 349 351 349 348 348 333 334 335 336 339 339 339 339 336 334 333 333 332 343 340 340 341 340 336 336 338 340 341 343 343 344
353 357 359 346 344 345 345 343 344 346 347 348 347 346 345 345 346 346 346 349 349 348 349 348 347 339 335 336 341 344 344 336 336 333 338 345 347 348 347 346 348 341 338 340 348 347 347 346 345
350 353 353 350 346 348 347 347 347 349 346 348 347 346 345 346 345 345 345 345 348 348 349 349 349 345 340 345 344 349 343 344 345 341 341 347 349 349 348 346 349 347 339 339 346 347 343 344 347
356 353 352 351 348 349 347 347 346 348 346 346 347 346 346 346 345 345 345 344 345 348 349 350 351 348 345 345 347 347 345 348 346 345 344 346 348 349 349 349 348 351 347 343 346 347 349 345 346
356 354 351 351 351 351 350 352 350 349 347 346 347 346 346 346 345 345 345 345 345 345 349 352 351 349 346 348 349 348 345 347 349 348 350 344 347 349 349 349 349 351 349 348 348 349 349 348 347
354 354 350 351 352 352 353 352 351 350 348 347 346 345 346 346 346 345 345 345 345 345 344 345 350 349 349 349 350 348 347 350 351 350 351 348 342 348 349 351 349 349 348 347 348 349 348 341 349
354 354 349 352 352 353 351 352 352 351 349 347 345 344 344 344 344 344 344 344 344 345 344 344 344 344 346 347 347 347 346 348 347 347 347 350 348 348 348 349 348 347 345 345 347 350 346 344 349
355 355 351 350 352 350 348 355 346 347 351 349 346 344 344 344 344 344 345 344 344 345 345 345 345 344 344 344 344 346 342 347 347 347 347 346 347 348 346 345 347 349 349 349 348 348 343 345 350
357 363 356 353 351 350 352 354 350 346 351 350 348 344 344 345 344 344 345 346 345 346 345 345 346 345 345 339 334 332 332 339 346 346 346 346 345 346 346 344 337 345 347 349 349 350 351 348 351
360 358 357 357 354 351 355 354 352 347 351 351 348 345 344 344 343 344 344 345 346 348 347 347 347 346 346 344 341 336 334 335 340 347 347 346 346 345 345 344 341 336 345 349 348 349 351 350 352
352 353 351 354 352 355 356 355 353 352 353 351 349 347 344 343 343 343 343 343 346 345 348 347 346 347 347 347 348 345 342 344 345 344 341 344 345 345 345 344 343 341 339 342 348 349 350 350 350
351 349 348 342 348 347 354 360 354 352 350 351 350 349 347 344 343 342 342 343 344 344 344 347 344 347 347 348 346 346 348 350 350 349 350 349 345 344 343 344 342 343 341 338 342 346 347 349 349
348 346 346 342 342 342 345 353 348 349 348 350 351 351 350 348 346 343 345 344 346 346 349 351 351 350 349 349 349 349 350 354 355 353 350 350 350 349 347 348 349 345 342 341 338 341 347 349 349
344 343 345 345 345 348 344 350 343 342 344 344 345 351 351 351 350 349 349 348 348 349 350 351 351 351 352 352 351 351 349 352 353 354 354 353 351 350 351 350 350 351 350 346 341 342 348 349 349
347 346 346 345 344 344 347 348 341 341 340 340 341 349 350 351 351 350 350 351 351 351 351 351 351 352 352 353 353 353 353 352 355 358 358 356 355 353 352 353 354 351 351 350 349 346 342 343 344
341 341 346 346 344 349 345 345 347 341 341 341 340 341 343 347 350 348 351 351 351 352 352 352 352 353 353 353 353 353 353 354 355 356 357 357 357 358 355 355 354 353 352 352 352 350 349 346 343
343 344 347 349 349 349 345 346 345 343 340 341 339 341 343 342 346 345 349 352 352 353 353 353 353 353 353 353 353 353 352 353 355 357 357 357 358 358 356 358 357 356 354 353 351 350 349 348 346
341 341 344 349 348 345 345 346 345 341 341 341 341 342 341 340 342 342 344 346 350 349 349 354 351 352 352 353 353 353 351 346 340 337 333 332 332 333 336 345 356 357 355 354 352 350 350 349 348
337 336 334 335 336 340 341 341 343 341 340 341 337 336 338 339 340 340 343 343 341 343 339 347 352 350 352 353 353 348 336 335 332 333 335 335 332 333 333 334 339 346 351 352 351 351 350 350 349
337 335 331 332 338 342 343 343 343 344 341 336 336 336 339 339 340 341 341 341 341 340 340 344 348 346 351 353 352 331 333 334 334 335 337 333 333 333 333 335 336 337 337 341 347 350 350 351 349
333 330 329 330 329 335 341 336 336 341 336 335 334 339 339 339 340 341 341 344 344 346 340 342 351 352 354 351 332 335 335 336 336 338 334 331 331 330 332 336 338 339 337 335 339 345 346 347 349
336 334 331 331 331 330 331 333 334 337 336 337 341 341 340 340 341 341 342 342 343 346 343 357 354 354 352 337 335 338 337 337 337 337 330 332 333 333 334 339 340 339 337 340 343 344 346 346 346
Wind_Speed
5 10 6 9 5 2 3 5 10 13 9 20 24 18 16 14 3 6 29 23 26 28 26 23 21 21 19 20 18 18 16 16 15 12 12 11 9 7 7 8 9 8 9 7 6 6 5 5 4
5 2 7 4 2 2 3 9 15 12 11 18 27 27 22 14 17 32 32 19 29 28 27 23 22 22 19 18 17 16 15 13 12 10 8 7 6 5 5 6 6 7 7 5 4 4 3 3 2
11 4 5 4 2 1 7 11 11 10 14 15 10 15 12 15 28 36 23 25 28 27 26 23 22 22 18 17 16 15 14 12 11 9 7 6 5 4 5 6 5 5 5 3 2 2 1 2 3
4 2 5 2 6 8 11 9 12 9 17 27 23 12 22 27 24 31 26 21 25 26 24 23 21 20 18 17 15 14 14 12 10 8 8 6 4 4 5 5 5 5 5 4 3 2 1 2 4
7 3 1 4 8 10 10 18 18 12 26 27 29 14 20 24 26 31 28 18 19 21 20 20 19 19 17 16 15 14 13 11 9 9 8 6 5 5 4 5 5 6 6 5 5 4 3 3 3
8 6 4 2 10 9 7 18 22 17 28 27 27 21 20 29 33 34 24 26 16 18 16 18 18 18 17 16 14 13 12 11 9 8 7 5 5 4 4 3 4 5 5 6 5 5 5 5 5
5 1 4 2 12 14 7 14 13 14 18 20 27 14 22 28 28 29 27 26 22 18 13 16 18 18 16 15 13 12 11 9 9 9 8 6 5 4 4 3 6 7 6 6 6 5 4 4 5
5 4 6 4 10 6 10 20 22 20 10 30 28 8 20 31 27 24 28 29 23 16 12 18 16 16 16 14 13 11 9 9 9 9 8 7 7 6 6 6 7 6 6 7 7 6 5 2 2
7 4 5 3 9 5 13 11 15 13 17 14 9 31 36 32 29 23 27 29 21 16 12 17 16 15 15 13 12 9 7 7 8 8 8 10 9 7 8 8 7 5 6 6 6 5 2 1 3
4 3 6 6 6 9 11 16 13 11 22 28 30 33 31 33 28 24 23 30 22 19 16 15 13 13 18 16 11 8 6 7 7 8 9 11 8 5 5 4 4 3 3 6 6 3 3 2 7
3 3 5 9 8 12 16 16 14 13 12 29 33 32 31 30 27 24 21 21 24 20 19 15 12 9 12 16 11 6 11 10 8 7 9 10 6 4 4 5 4 1 2 2 2 4 10 3 3
9 13 16 4 4 4 9 16 12 25 20 25 30 29 29 26 27 22 24 22 18 24 23 17 12 10 14 13 12 8 9 7 5 3 5 9 6 7 8 5 4 4 4 1 1 1 2 5 3
8 17 9 14 4 4 20 14 3 23 27 27 27 25 25 22 25 20 20 22 20 18 21 22 16 12 16 10 14 8 3 5 9 6 4 5 11 8 7 9 5 7 3 3 5 2 3 5 4
9 13 6 4 12 11 9 7 5 20 25 24 23 21 22 23 23 21 22 23 23 22 20 17 19 13 14 14 15 13 10 7 18 11 8 5 11 13 9 8 10 9 8 7 11 8 8 5 5
4 3 6 5 6 4 7 4 3 6 22 22 21 20 19 20 18 17 20 19 24 22 20 22 24 20 20 20 20 20 19 9 11 11 10 10 11 13 15 19 19 14 14 13 10 11 13 10 5
6 4 2 5 3 2 6 6 7 5 11 23 21 22 18 20 20 18 17 18 17 20 20 20 22 21 19 25 26 27 20 20 15 13 15 16 15 15 14 21 22 16 16 15 17 16 8 8 13
5 2 5 5 6 8 3 6 10 12 9 17 20 21 19 18 20 20 19 19 19 18 22 21 18 17 16 13 17 18 20 26 22 20 18 18 18 18 16 14 20 21 18 18 18 18 23 15 19
3 4 8 7 12 12 7 5 6 18 13 20 23 20 20 20 21 20 20 19 20 20 23 21 22 20 18 12 10 12 15 16 20 25 21 21 22 22 22 19 15 18 23 23 23 22 17 17 12
7 11 18 15 13 13 15 9 10 17 17 21 27 24 23 22 21 22 20 18 22 22 23 21 20 21 21 20 17 16 15 14 14 14 17 20 22 22 23 22 18 16 24 25 26 26 25 24 23
15 5 5 5 9 3 17 6 15 15 15 26 29 28 26 24 24 25 22 21 24 24 21 22 22 24 26 23 19 18 13 11 10 10 13 15 20 24 25 25 25 22 20 24 29 29 31 30 28
4 3 1 6 5 14 10 13 9 10 16 25 32 32 30 28 29 31 27 29 26 27 26 24 22 22 25 24 22 21 17 17 17 19 21 20 22 26 27 26 25 26 25 25 26 27 33 34 32
3 6 4 10 7 3 3 3 4 5 5 7 11 31 33 30 30 35 33 33 33 30 29 28 25 24 22 23 25 26 25 26 26 26 23 22 25 27 27 28 29 28 27 27 28 29 30 29 32
6 6 12 10 3 5 4 5 8 6 6 8 12 27 30 32 32 39 37 36 35 33 33 32 30 28 26 26 26 24 26 25 22 19 18 20 22 25 28 28 29 33 34 33 33 31 35 37 35
8 7 10 5 4 2 10 6 4 4 7 7 13 20 22 27 34 31 38 35 35 31 32 34 34 30 28 28 28 27 24 23 25 27 28 27 25 23 25 26 28 30 33 33 32 34 37 36 40
2 5 2 2 3 5 11 2 8 8 7 6 14 24 25 27 31 30 39 40 34 32 35 36 37 35 31 29 28 26 23 22 22 23 24 25 27 29 28 26 28 30 30 34 33 34 36 35 38
6 5 4 3 1 2 12 5 4 6 9 7 3 10 17 18 29 26 29 13 20 20 18 35 37 39 35 33 28 25 22 21 19 17 16 16 17 17 19 23 25 25 26 29 33 34 36 36 36
7 3 6 3 8 5 4 2 5 6 5 7 3 12 7 24 23 20 16 29 41 38 32 33 44 38 37 34 29 23 21 20 17 16 16 13 13 14 18 22 27 30 31 32 31 33 35 35 36
4 5 7 5 2 4 2 5 6 5 7 6 2 13 18 18 22 19 13 9 25 28 24 35 36 38 34 28 26 23 20 18 17 18 15 13 14 16 19 21 22 24 26 29 31 34 35 34 34
5 6 5 2 5 5 5 6 6 6 7 6 10 15 16 15 14 13 14 8 11 23 27 25 34 31 28 27 28 22 18 16 15 15 14 14 14 16 18 19 21 23 25 26 28 32 34 35 34
3 4 4 5 8 1 4 3 6 1 7 19 23 22 20 17 13 13 7 7 13 9 21 27 27 25 24 23 21 18 17 15 14 14 15 16 17 15 18 21 24 24 25 25 24 25 28 31 35
Wind_Direction
125 95 74 342 48 94 274 87 87 76 56 67 85 80 75 52 124 137 146 168 160 156 157 156 155 150 148 146 144 144 146 143 139 135 128 125 129 126 121 116 116 130 140 135 122 116 113 102 95
52 153 173 205 283 185 25 81 91 94 120 98 93 89 70 73 97 131 147 165 156 153 155 152 154 152 152 149 151 156 159 158 154 155 146 140 137 156 156 159 150 140 139 142 135 125 136 133 109
8 135 200 165 240 268 95 87 94 130 142 113 64 58 74 120 120 139 143 153 152 151 155 152 150 153 151 153 158 159 164 170 168 171 171 161 153 166 163 160 171 173 174 177 187 139 113 112 122
338 228 260 205 152 111 118 125 127 107 93 96 98 67 112 127 126 140 136 136 148 150 153 153 150 151 155 159 162 167 166 175 172 177 183 171 167 181 186 184 195 207 205 209 223 187 141 124 130
320 266 320 254 83 89 120 142 136 102 88 98 99 109 98 130 129 139 140 135 146 144 150 154 154 157 158 160 164 168 171 176 178 183 186 184 191 199 200 200 206 215 211 203 207 192 174 157 152
68 12 333 145 114 73 47 99 99 103 106 110 109 107 114 130 134 148 146 149 145 144 152 162 162 162 162 164 166 167 171 174 181 187 186 196 192 179 181 206 207 192 182 170 172 179 171 162 156
93 49 238 20 108 92 70 81 114 112 129 135 127 116 131 139 142 149 153 159 158 162 162 171 166 166 166 166 169 172 173 181 192 192 183 178 169 155 153 135 153 152 153 149 154 149 143 131 132
195 184 292 184 98 83 82 76 93 96 102 137 135 147 150 153 152 156 159 165 164 164 163 173 173 173 169 168 174 174 179 184 185 185 179 157 161 153 142 120 106 120 129 148 134 116 92 90 128
138 281 311 303 105 136 124 105 100 131 86 62 135 149 150 152 153 160 153 165 165 164 148 160 170 181 175 165 162 169 190 195 188 180 162 154 140 144 135 112 92 95 122 122 102 75 62 196 124
108 161 235 82 137 149 159 129 130 130 108 96 108 133 145 155 156 164 163 165 172 176 173 171 168 171 181 166 167 181 190 187 184 166 148 151 164 160 156 110 88 98 132 134 79 64 349 29 84
21 229 281 53 59 12 138 118 115 128 124 129 133 140 151 157 164 164 170 172 179 191 180 186 174 160 166 169 172 185 161 150 145 151 168 163 173 172 188 192 179 127 181 184 235 3 27 14 98
317 267 259 68 91 36 99 126 113 97 124 139 142 144 157 162 170 171 180 172 182 179 189 195 190 169 172 180 199 189 178 179 191 177 153 206 188 223 229 251 255 220 47 148 201 345 274 354 165
280 275 312 143 104 47 79 45 349 107 114 128 139 146 160 170 177 174 184 178 180 186 187 191 193 172 166 171 189 188 207 204 223 237 211 201 209 199 230 247 248 225 257 311 309 301 284 304 282
215 257 8 169 87 68 88 53 69 99 119 124 138 156 170 174 184 178 182 187 185 185 184 190 180 164 170 179 197 182 204 259 236 226 235 210 190 184 198 219 235 231 249 259 266 276 279 315 266
130 74 325 65 147 108 91 28 319 52 127 137 147 163 181 170 181 175 189 179 190 182 178 194 195 206 198 194 199 211 209 184 226 241 234 235 213 225 221 219 225 230 219 227 253 249 281 273 245
350 61 18 253 168 145 102 255 269 173 158 151 158 172 177 176 180 174 185 182 187 182 186 198 204 215 228 229 227 229 218 201 203 225 244 247 244 249 256 236 231 222 215 233 249 252 260 277 266
303 52 248 307 191 165 132 259 252 225 194 162 162 167 177 183 183 181 187 185 192 194 194 198 209 221 230 225 221 219 213 212 212 218 231 248 252 258 265 270 240 226 220 223 237 247 256 271 260
352 263 257 243 191 179 141 230 251 212 210 176 161 170 185 188 189 187 191 196 202 192 199 204 208 220 228 227 220 214 213 216 216 220 220 230 248 257 263 271 263 234 220 226 228 237 251 254 260
231 211 233 236 169 157 189 183 205 213 204 183 166 174 184 190 195 193 196 195 205 196 203 208 210 211 220 227 227 226 223 219 224 220 225 223 237 250 258 267 268 257 239 232 229 232 241 248 254
253 307 351 98 168 153 175 118 209 205 178 173 168 177 185 189 192 191 190 198 205 205 213 216 216 210 217 227 232 236 239 241 249 250 245 238 236 250 258 265 270 270 264 247 240 238 241 246 251
241 228 282 206 59 64 99 179 168 200 182 183 175 183 185 189 191 192 189 197 204 216 223 224 225 222 224 231 236 241 243 245 244 248 254 255 254 251 256 267 276 273 264 263 254 246 246 251 255
48 239 350 148 71 145 73 138 279 201 119 156 195 185 188 193 197 198 198 198 202 214 226 232 236 236 239 235 233 236 234 232 235 238 241 247 253 257 260 263 267 273 272 269 263 254 250 251 255
230 248 124 105 92 82 28 89 259 148 190 197 217 180 194 195 193 198 205 210 207 206 218 228 234 241 244 243 242 242 242 243 245 244 248 254 260 262 265 269 274 271 270 273 270 262 253 254 257
268 279 81 57 127 80 188 157 264 217 196 205 191 196 200 195 201 204 210 211 212 210 215 225 230 230 238 242 243 240 240 241 240 241 242 246 251 257 261 268 272 275 276 271 273 272 265 257 253
151 320 126 255 336 227 153 137 231 205 195 208 188 205 191 202 205 209 208 200 208 212 220 223 229 232 230 231 238 243 249 250 246 246 248 248 249 253 257 260 265 270 274 276 271 266 266 266 259
286 189 177 246 277 271 135 157 249 187 197 229 229 271 221 220 216 213 112 149 207 217 267 231 225 230 230 230 229 236 241 239 232 234 241 250 256 260 264 264 265 269 270 266 267 268 266 267 267
289 352 249 271 119 70 224 339 20 172 192 236 215 27 30 69 70 80 177 197 213 211 227 224 229 227 227 227 224 220 222 221 221 225 232 250 265 269 274 271 268 268 269 270 272 269 271 272 270
225 261 351 347 46 83 34 168 203 187 212 151 150 68 61 48 60 59 85 154 197 231 231 226 229 223 217 219 221 210 210 221 231 236 245 261 264 266 272 274 272 271 273 273 273 271 272 272 273
354 346 1 102 93 120 178 276 228 157 167 112 87 82 64 43 34 44 31 24 308 280 237 231 215 210 209 215 210 209 211 220 230 240 255 267 274 274 273 277 279 278 280 280 272 268 270 270 271
271 53 62 96 318 310 112 274 78 212 53 70 69 61 50 38 26 355 349 340 345 338 216 203 206 216 223 218 218 219 214 218 235 255 268 273 275 283 283 282 279 281 286 281 275 269 269 269 270